Location: ?????
(54.9266°N, 38.5527°E)
Time: 13:35:00
(UTC+00:00)

COSMOS 2251 DEB - Visible Passes

Search period start: 14 September 2024 00:00
Search period end: 24 September 2024 00:00
Orbit: 544 x 570 km, 74.0° (Epoch: 13 September)

Date Brightness Start Highest point End Pass type
(mag) Time Alt. Az. Time Alt. Az. Time Alt. Az.
14 Sep ? 00:44:32 10° NNE 00:45:51 11° NNE 00:47:11 10° NE visible
14 Sep ? 02:20:36 10° NNW 02:24:33 42° NE 02:28:25 10° SE visible
14 Sep ? 16:27:55 10° ESE 16:29:48 13° E 16:31:41 10° ENE visible
14 Sep ? 18:02:29 10° SSW 18:06:39 85° ESE 18:10:50 10° NNE visible
14 Sep ? 19:41:43 10° W 19:44:45 19° NW 19:47:48 10° N visible
15 Sep ? 00:41:44 10° N 00:43:33 12° NE 00:45:22 10° ENE visible
15 Sep ? 02:18:05 10° NNW 02:22:06 49° ENE 02:26:04 10° SE visible
15 Sep ? 16:24:37 10° SE 16:27:04 15° E 16:29:31 10° ENE visible
15 Sep ? 17:59:52 10° SSW 18:04:01 80° WNW 18:08:11 10° NNE visible
15 Sep ? 19:39:27 10° W 19:42:13 17° NW 19:45:00 10° N visible
16 Sep ? 00:38:49 10° N 00:41:00 14° NE 00:43:11 10° ENE visible
16 Sep ? 02:15:21 10° NNW 02:19:25 59° ENE 02:23:26 10° SE visible
16 Sep ? 16:21:14 10° SE 16:24:07 18° E 16:26:58 10° NE visible
16 Sep ? 17:57:02 10° SW 18:01:10 67° WNW 18:05:17 10° NNE visible
16 Sep ? 19:36:59 10° WNW 19:39:28 15° NW 19:41:56 10° N visible
17 Sep ? 00:35:42 10° N 00:38:12 15° NE 00:40:42 10° ENE visible
17 Sep ? 02:12:22 10° NNW 02:16:29 70° ENE 02:20:32 10° SE visible
17 Sep ? 16:17:45 10° SSE 16:20:55 22° ESE 16:24:05 10° NE visible
17 Sep ? 17:54:00 10° SW 17:58:04 57° WNW 18:02:09 10° NNE visible
17 Sep ? 19:34:19 10° WNW 19:36:28 14° NW 19:38:37 10° N visible
18 Sep ? 00:32:23 10° N 00:35:09 17° NE 00:37:54 10° E visible
18 Sep ? 02:09:11 10° NNW 02:13:18 84° ENE 02:17:22 10° SSE visible
18 Sep ? 16:14:07 10° SSE 16:17:30 25° ESE 16:20:55 10° NE visible
18 Sep ? 17:50:45 10° SW 17:54:46 48° NW 17:58:46 10° NNE visible
18 Sep ? 19:31:30 10° WNW 19:33:15 12° NNW 19:35:00 10° N visible
19 Sep ? 00:28:51 10° N 00:31:51 19° NE 00:34:49 10° E visible
19 Sep ? 02:05:46 10° NNW 02:09:52 83° WSW 02:13:55 10° SSE visible
19 Sep ? 16:10:17 10° SSE 16:13:52 29° ESE 16:17:28 10° NE visible
19 Sep ? 17:47:18 10° SW 17:51:13 41° NW 17:55:08 10° NNE visible
19 Sep ? 19:28:32 10° NW 19:29:48 11° NNW 19:31:04 10° NNW visible
20 Sep ? 00:25:07 10° N 00:28:18 21° NE 00:31:28 10° E visible
20 Sep ? 02:02:07 10° NNW 02:06:11 70° WSW 02:10:13 10° SSE visible
20 Sep ? 16:06:17 10° S 16:10:01 34° ESE 16:13:46 10° NE visible
20 Sep ? 17:43:38 10° WSW 17:47:26 36° NW 17:51:16 10° NNE visible
20 Sep ? 19:25:42 10° NW 19:26:07 10° NNW 19:26:32 10° NNW visible
21 Sep ? 00:21:09 10° N 00:24:30 24° NE 00:27:49 10° ESE visible
21 Sep ? 01:58:15 10° NNW 02:02:16 59° WSW 02:06:15 10° S visible
21 Sep ? 16:02:05 10° S 16:05:56 40° ESE 16:09:47 10° NE visible
21 Sep ? 17:39:45 10° WSW 17:43:27 31° NW 17:47:09 10° NNE visible
22 Sep ? 00:16:58 10° N 00:20:27 27° NE 00:23:56 10° ESE visible
22 Sep ? 01:54:10 10° NW 01:58:06 50° WSW 02:02:01 10° S visible
22 Sep ? 15:57:41 10° S 16:01:37 47° ESE 16:05:34 10° NE visible
22 Sep ? 17:35:40 10° WSW 17:39:14 28° NW 17:42:47 10° NNE visible
23 Sep ? 00:12:32 10° NNW 00:16:10 30° NE 00:19:46 10° ESE visible
23 Sep ? 01:49:50 10° NW 01:53:42 42° WSW 01:57:31 10° S visible
23 Sep ? 15:53:05 10° S 15:57:05 55° ESE 16:01:05 10° NE visible
23 Sep ? 17:31:21 10° WSW 17:34:45 25° NW 17:38:12 10° N visible
